User: anonymous   Login
Location: Unspecified
(0.0000°N, 0.0000°E)
Time: 20:41:51
(UTC+00:00)
Language:

OGO 1 - Orbit

View from above orbital plane
View from above orbital plane
View from above satellite
View from above satellite

Ground track
Ground track

The orbit data is extracted from the following two-line orbital elements,

1   879U 64054A   17235.60836002 -.00000511 +00000-0 +00000-0 0  9994
2   879 085.3818 330.6181 6378314 200.0859 359.3359 00.37748508005179
Epoch (UTC): 23 August 2017 14:36:02
Eccentricity: 0.6378314
inclination: 85.3818°
perigee height: 22911 km
apogee height: 126076 km
right ascension of ascending node: 330.6181°
argument of perigee: 200.0859°
revolutions per day: 0.37748508
mean anomaly at epoch: 359.3359°
orbit number at epoch: 517

The dashed part of the orbit path shows where the satellite is in the earth's shadow,  

DLR